Pontiac, MI

7:13 AM EST on November 13, 2019 (GMT -0500)
Oakland County International

Weather History for KPTK - June, 2019

Change the Weather History Date:

Monday, June 3, 2019

  Actual Average Record
Temperature  
Mean Temperature 54 °F -  
Max Temperature 64 °F 70 °F 81 °F (2016)
Min Temperature 43 °F 49 °F 42 °F (1998)
Degree Days  
Heating Degree Days 12    
Growing Degree Days 4 (Base 50)    
Moisture  
Dew Point 35 °F    
Average Humidity 50    
Maximum Humidity 69    
Minimum Humidity 33    
Precipitation  
Precipitation 0.00 in - - ()
Sea Level Pressure  
Sea Level Pressure 30.08 in    
Wind  
Wind Speed 8 mph (WNW)    
Max Wind Speed 12 mph    
Max Gust Speed -    
Visibility 10 miles    
Events      
Averages and records for this station are not official NWS values.
T = Trace of Precipitation, MM = Missing Value Source: NWS Daily Summary

Daily Weather History Graph

Daily Weather History Graph

Search for Another Location

Airport or City:

Astronomy

Jun. 03, 2019 Rise Set
Actual Time 5:57 AM EDT 9:06 PM EDT
Civil Twilight 5:23 AM EDT 9:40 PM EDT
Nautical Twilight 4:39 AM EDT 10:24 PM EDT
Astronomical Twilight 3:46 AM EDT 11:18 PM EDT
Moon 6:19 AM EDT (6/3) 9:29 PM EDT (6/3)
Length of Visible Light 16h 17m
Length of Day
15h 08m
New Moon, 0% of the Moon is Illuminated
Jun 3
New Moon
Jun 10
First Quarter
Jun 17
Full
Jun 25
Last Quarter
Jul 2
New

Hourly Weather History & Observations

Time (EDT) Temp. Windchill Dew Point Humidity Pressure Visibility Wind Dir Wind Speed Gust Speed Precip Events Conditions
12:53 AM 51.1 °F - 32.0 °F 48% 29.97 in 10.0 mi NNW 10.4 mph - N/A   Clear
1:53 AM 48.9 °F - 32.0 °F 52% 29.99 in 10.0 mi NW 9.2 mph - N/A   Clear
2:53 AM 46.9 °F - 32.0 °F 56% 30.00 in 10.0 mi NW 11.5 mph - N/A   Clear
3:53 AM 45.0 °F 40.1 °F 32.0 °F 60% 30.02 in 10.0 mi NW 9.2 mph - N/A   Clear
4:53 AM 44.1 °F 39.5 °F 33.1 °F 65% 30.04 in 10.0 mi WNW 8.1 mph - N/A   Clear
5:53 AM 43.0 °F 38.2 °F 33.1 °F 68% 30.06 in 10.0 mi NW 8.1 mph - N/A   Clear
6:53 AM 44.1 °F 38.6 °F 33.1 °F 65% 30.08 in 10.0 mi NW 10.4 mph - N/A   Partly Cloudy
7:53 AM 46.0 °F 41.4 °F 35.1 °F 66% 30.09 in 10.0 mi NW 9.2 mph - N/A   Partly Cloudy
8:53 AM 48.9 °F - 36.0 °F 61% 30.12 in 10.0 mi NW 9.2 mph - N/A   Partly Cloudy
9:53 AM 52.0 °F - 36.0 °F 54% 30.13 in 10.0 mi NW 5.8 mph - N/A   Clear
10:53 AM 54.0 °F - 35.1 °F 49% 30.14 in 10.0 mi West 5.8 mph - N/A   Partly Cloudy
11:53 AM 55.9 °F - 36.0 °F 47% 30.14 in 10.0 mi NNW 8.1 mph - N/A   Partly Cloudy
12:53 PM 57.9 °F - 36.0 °F 44% 30.15 in 10.0 mi WSW 6.9 mph - N/A   Partly Cloudy
1:53 PM 59.0 °F - 34.0 °F 39% 30.13 in 10.0 mi WSW 5.8 mph - N/A   Partly Cloudy
2:53 PM 61.0 °F - 36.0 °F 39% 30.11 in 10.0 mi Variable 3.5 mph - N/A   Partly Cloudy
3:53 PM 63.0 °F - 35.1 °F 35% 30.10 in 10.0 mi Variable 3.5 mph - N/A   Partly Cloudy
4:53 PM 63.0 °F - 36.0 °F 37% 30.10 in 10.0 mi Variable 4.6 mph - N/A   Partly Cloudy
5:53 PM 64.0 °F - 36.0 °F 35% 30.09 in 10.0 mi West 9.2 mph - N/A   Partly Cloudy
6:53 PM 64.0 °F - 34.0 °F 33% 30.09 in 10.0 mi West 9.2 mph - N/A   Partly Cloudy
7:53 PM 62.1 °F - 36.0 °F 38% 30.08 in 10.0 mi West 8.1 mph - N/A   Mostly Cloudy
8:53 PM 60.1 °F - 37.0 °F 42% 30.09 in 10.0 mi NW 6.9 mph - N/A   Mostly Cloudy
9:53 PM 61.0 °F - 37.9 °F 42% 30.09 in 10.0 mi Calm Calm - N/A   Scattered Clouds
10:53 PM 55.9 °F - 39.9 °F 55% 30.09 in 10.0 mi Calm Calm - N/A   Scattered Clouds
11:53 PM 53.1 °F - 43.0 °F 69% 30.09 in 10.0 mi Calm Calm - N/A   Partly Cloudy